Location: Austin
(30.3000°N, 97.7500°W)
Time: 07:37:31
(UTC-05:00)

Cosmos 858 Rocket - Pass Details

Date: 19 September 2023
Orbit: 754 x 774 km, 74.1° (Epoch: 25 September)

Event Time Altitude Azimuth Distance (km) Brightness Sun altitude
Exits shadow 05:56:07 19° 208° (SSW) 1,737 6.0 -18.2°
Maximum altitude 05:59:48 66° 287° (WNW) 824 4.4 -17.5°
Drops below altitude 10° 06:04:58 10° 10° (N) 2,293 7.2 -16.4°
Sets 06:07:23 0° 13° (NNE) 3,224 8.1 -15.9°
